{"data":{"norad_id":60466,"intl_designator":"2024-148J","name":"YAOGAN-43 01J","alt_names":[],"object_type":"PAYLOAD","status":"ACTIVE","operator":null,"country":"PRC","launch_date":"2024-08-16","launch_site_code":"XICLF","launch_vehicle":null,"mission":null,"orbit_class":"UNKNOWN","rcs_meters":null,"size_class":null,"mass_kg":null,"dimensions":null,"purposes":[],"wikipedia_slug":null,"has_3d_model":false,"image_url":null,"decayed_at":null,"tle_current":{"epoch":"2026-05-24T20:11:29.095872Z","epoch_age_seconds":88793,"freshness":"FRESH","line1":"1 60466U 24148J   26144.84130898  .00013175  00000+0  36956-3 0  9997","line2":"2 60466  34.9912 283.4893 0007480  44.9877 315.1447 15.35707770 98843","mean_motion":15.3570777,"eccentricity":0.000748,"inclination_deg":34.9912,"raan_deg":283.4893,"arg_perigee_deg":44.9877,"mean_anomaly_deg":315.1447,"bstar":0.00036956,"rev_number":9884,"period_min":93.767839697783,"perigee_km":453.70498768705,"apogee_km":463.93307390913,"semimajor_km":6836.9560307981,"source":"CELESTRAK","updated_at":"2026-05-25T13:38:02.086954Z"}}}